1498280400.35,61306,17.38,73948.3,7.71,-21.47,-22.41,0,*7B
1498280401.57,61307,17.38,73948.8,7.73,-21.43,-22.37,0,*7D
1498280402.8,61308,17.38,73960.8,7.75,-21.87,-22.87,0,*77
1498280404.02,61309,17.38,73954.5,7.75,-21.83,-22.83,0,*76
1498280405.24,61310,17.38,73942.8,7.75,-21.67,-22.67,0,*7E
1498280406.46,61311,17.38,73954.8,7.73,-21.43,-22.27,0,*7B
1498280407.65,61312,17.44,73952.3,7.75,-21.39,-22.37,0,*72
1498280408.87,61313,17.38,73956.0,7.75,-21.43,-22.31,0,*78
1498280410.14,61314,17.38,73962.5,7.77,-20.79,-21.57,0,*76
1498280411.39,61315,17.38,73972.5,7.77,-20.73,-21.57,0,*7D
1498280412.6,61316,17.38,73964.8,7.81,-20.89,-21.93,0,*7A
1498280413.82,61317,17.38,73964.8,7.81,-21.03,-22.07,0,*76
1498280415.04,61318,17.38,73970.0,7.81,-20.73,-21.57,0,*79
1498280416.29,61319,17.38,73974.3,7.83,-20.73,-21.83,0,*73
1498280417.54,61320,17.44,73972.5,7.83,-20.69,-21.57,0,*7B
1498280418.77,61321,17.38,73974.3,7.85,-20.99,-22.03,0,*71
1498280419.96,61322,17.38,73986.8,7.85,-20.69,-21.73,0,*79
1498280421.18,61323,17.38,73952.5,7.85,-22.37,-23.43,0,*70
1498280422.43,61324,17.44,73968.5,7.87,-21.43,-22.21,0,*70
1498280423.66,61325,17.38,73950.0,7.87,-20.93,-22.03,0,*7D
1498280424.86,61326,17.44,73972.0,7.85,-21.13,-22.07,0,*71
1498280426.14,61327,17.38,73974.0,7.87,-20.49,-21.27,0,*7D
1498280427.34,61328,17.38,73982.0,7.93,-20.09,-21.13,0,*74
1498280428.56,61329,17.44,73986.5,7.93,-20.19,-21.13,0,*74
1498280429.82,61330,17.44,73978.5,7.97,-20.35,-21.27,0,*71
1498280431.06,61331,17.38,73974.0,7.97,-20.49,-21.57,0,*7C
1498280432.34,61332,17.38,73976.0,7.99,-20.49,-21.53,0,*75
1498280433.56,61333,17.44,73978.3,8.01,-20.29,-21.23,0,*7B
1498280434.79,61334,17.38,73978.5,8.01,-20.49,-21.47,0,*78
1498280436.01,61335,17.44,73978.8,8.01,-21.03,-22.03,0,*75
1498280437.26,61336,17.44,73978.0,8.07,-20.49,-21.47,0,*7C
1498280438.51,61337,17.38,73980.5,8.03,-20.69,-21.83,0,*73
1498280439.79,61338,17.44,73976.8,8.07,-20.83,-21.87,0,*78
1498280441.0,61339,17.44,73970.0,8.07,-21.43,-22.57,0,*7A
1498280442.23,61340,17.38,73970.5,8.09,-20.59,-21.57,0,*73
1498280443.45,61341,17.38,73968.3,8.07,-20.63,-21.63,0,*72
1498280444.67,61342,17.38,73976.0,8.09,-20.15,-21.09,0,*72
1498280445.89,61343,17.38,73972.5,8.09,-20.15,-21.17,0,*7C
1498280447.11,61344,17.38,73976.5,8.15,-20.19,-21.17,0,*7A
1498280448.33,61345,17.38,73970.8,8.17,-20.39,-21.43,0,*7A
1498280449.61,61346,17.38,73976.8,8.17,-20.35,-21.23,0,*73
1498280450.81,61347,17.38,73980.3,8.19,-20.25,-21.13,0,*7E
1498280452.05,61348,17.44,73978.3,8.19,-20.35,-21.33,0,*72
1498280453.27,61349,17.44,73978.0,8.21,-20.93,-22.03,0,*74
1498280454.5,61350,17.44,73984.3,8.19,-21.13,-22.17,0,*7B
1498280455.78,61351,17.38,73974.3,8.21,-21.57,-22.77,0,*77
1498280457.03,61352,17.44,73980.0,8.21,-22.97,-24.21,0,*7E
1498280458.25,61353,17.38,73972.3,8.21,-22.83,-24.05,0,*7C
1498280459.48,61354,17.44,73978.0,8.19,-23.65,-24.77,0,*7C
1498280460.73,61355,17.44,73976.0,8.17,-23.33,-24.61,0,*77
1498280461.98,61356,17.44,73978.8,8.15,-23.99,-25.29,0,*7B
1498280463.24,61357,17.44,73976.0,8.11,-24.41,-25.61,0,*70
1498280464.45,61358,17.44,73978.3,8.11,-24.93,-26.07,0,*73
1498280465.67,61359,17.38,73974.3,8.07,-25.09,-26.23,0,*71
1498280466.9,61360,17.38,73970.0,8.05,-24.71,-25.87,0,*7A
1498280468.14,61361,17.44,73972.5,8.01,-24.41,-25.61,0,*74
1498280469.37,61362,17.38,73972.3,8.01,-24.21,-25.35,0,*70
1498280470.63,61363,17.44,73972.8,7.99,-24.31,-25.45,0,*79
1498280471.86,61364,17.38,73970.5,7.99,-24.31,-25.39,0,*75
1498280473.11,61365,17.38,73968.5,7.97,-23.69,-24.83,0,*70
1498280474.39,61366,17.38,73974.0,7.95,-23.19,-24.25,0,*7A
1498280475.67,61367,17.38,73970.8,7.95,-23.53,-24.71,0,*74
1498280476.9,61368,17.44,73966.0,7.97,-23.33,-24.47,0,*7A
1498280478.13,61369,17.44,73966.0,7.95,-23.09,-24.31,0,*71
1498280479.41,61370,17.44,73964.3,7.95,-24.21,-25.45,0,*76
1498280480.65,61371,17.44,73982.8,7.95,-24.35,-25.61,0,*74
1498280481.88,61372,17.38,73980.0,7.89,-23.59,-24.87,0,*7E
1498280483.08,61373,17.38,73974.5,7.89,-23.39,-24.51,0,*72
1498280484.3,61374,17.38,73976.3,7.89,-22.93,-23.95,0,*7B
1498280485.53,61375,17.44,73972.5,7.89,-22.57,-23.69,0,*71
1498280486.76,61376,17.44,73978.5,7.89,-22.47,-23.59,0,*70
1498280487.99,61377,17.38,73968.3,7.93,-22.27,-23.33,0,*70
1498280489.22,61378,17.38,73972.5,7.93,-22.37,-23.33,0,*7E
1498280490.49,61379,17.44,73974.8,7.95,-23.03,-23.99,0,*7F
1498280491.76,61380,17.44,73976.8,7.95,-23.33,-24.67,0,*7C
1498280492.99,61381,17.38,73972.5,7.95,-23.39,-24.61,0,*71
1498280494.19,61382,17.44,73978.8,7.89,-23.89,-24.97,0,*7D
1498280495.42,61383,17.44,73970.0,7.93,-24.35,-25.81,0,*71
1498280496.66,61384,17.44,73976.8,7.89,-24.21,-25.39,0,*7B
1498280497.91,61385,17.44,73972.3,7.89,-23.23,-24.25,0,*73
1498280499.14,61386,17.44,73974.0,7.89,-23.13,-24.25,0,*73
1498280500.34,61387,17.38,73964.3,7.89,-23.39,-24.51,0,*79
1498280501.58,61388,17.44,73972.8,7.89,-22.31,-23.43,0,*7B
1498280502.85,61389,17.44,73968.5,7.87,-23.03,-24.15,0,*70
1498280504.07,61390,17.44,73974.0,7.89,-22.83,-23.95,0,*70
1498280505.27,61391,17.44,73972.3,7.93,-22.27,-23.39,0,*72
1498280506.53,61392,17.44,73976.3,7.93,-22.77,-23.99,0,*7E
1498280507.76,61393,17.44,73972.0,7.93,-22.77,-23.89,0,*7E
1498280508.99,61394,17.44,73976.0,7.93,-22.53,-23.65,0,*7D
1498280510.22,61395,17.44,73976.8,7.93,-21.83,-22.93,0,*7A
1498280511.44,61396,17.38,73972.5,7.93,-22.07,-23.19,0,*75
1498280512.73,61397,17.44,73970.8,7.95,-21.67,-22.77,0,*7E
1498280513.99,61398,17.44,73972.3,7.97,-21.23,-22.17,0,*75
1498280515.24,61399,17.44,73976.0,7.97,-21.27,-22.21,0,*75
1498280516.47,61400,17.44,73978.3,8.01,-21.23,-22.27,0,*70
1498280517.74,61401,17.44,73982.0,7.99,-21.57,-22.73,0,*7D
1498280518.94,61402,17.44,73976.0,8.01,-22.11,-23.13,0,*76
1498280520.21,61403,17.44,73978.3,8.03,-22.21,-23.33,0,*74
1498280521.43,61404,17.44,73970.3,8.03,-22.87,-23.89,0,*7E
1498280522.69,61405,17.38,73974.0,8.03,-22.57,-23.53,0,*75
1498280523.95,61406,17.44,73976.8,8.03,-21.53,-22.63,0,*73
1498280525.17,61407,17.44,73976.3,8.03,-21.13,-22.07,0,*74
1498280526.42,61408,17.44,73978.8,8.05,-21.33,-22.21,0,*7B
1498280527.64,61409,17.44,73984.0,8.07,-20.63,-21.63,0,*79
1498280528.86,61410,17.44,73986.3,8.11,-21.17,-22.03,0,*71
1498280530.1,61411,17.44,73984.5,8.11,-21.09,-21.97,0,*71
1498280531.3,61412,17.44,73990.0,8.15,-21.13,-21.93,0,*79
1498280532.57,61413,17.38,73990.8,8.17,-20.35,-21.27,0,*70
1498280533.82,61414,17.44,73982.3,8.17,-20.83,-21.73,0,*7B
1498280535.02,61415,17.44,73978.0,8.19,-21.63,-22.57,0,*7E
1498280536.28,61416,17.38,73978.3,8.19,-20.99,-21.87,0,*77
1498280537.48,61417,17.44,73980.0,8.19,-21.09,-21.93,0,*7B
1498280538.73,61418,17.44,73978.3,8.21,-20.93,-21.87,0,*78
1498280539.94,61419,17.44,73976.8,8.23,-20.63,-21.57,0,*79
1498280541.16,61420,17.38,73982.0,8.27,-20.19,-21.17,0,*7E
1498280542.38,61421,17.44,73984.0,8.27,-20.25,-21.33,0,*76
1498280543.66,61422,17.44,73982.5,8.29,-20.83,-21.87,0,*78
1498280544.91,61423,17.44,73986.5,8.29,-21.27,-22.37,0,*7E
1498280546.13,61424,17.44,73988.0,8.31,-21.67,-22.67,0,*71
1498280547.38,61425,17.38,73990.8,8.29,-22.53,-23.53,0,*7B
1498280548.57,61426,17.38,73986.8,8.31,-22.37,-23.39,0,*7F
1498280549.8,61427,17.44,73988.3,8.29,-23.79,-24.93,0,*7B
1498280551.05,61428,17.44,74000.8,8.29,-23.95,-25.13,0,*7F
1498280552.27,61429,17.44,73962.5,8.27,-23.19,-24.31,0,*75
1498280553.49,61430,17.44,73972.3,8.27,-22.03,-23.03,0,*71
1498280554.68,61431,17.38,73978.0,8.27,-21.43,-22.41,0,*70
1498280555.87,61432,17.44,73980.3,8.27,-21.77,-22.87,0,*7E
1498280557.07,61433,17.44,73982.5,8.27,-21.17,-22.27,0,*73
1498280558.29,61434,17.44,73986.0,8.31,-20.83,-21.77,0,*79
1498280559.48,61435,17.44,73988.5,8.31,-20.73,-21.73,0,*73
1498280560.75,61436,17.44,73990.8,8.33,-22.31,-23.33,0,*70
1498280562.0,61437,17.44,73990.8,8.33,-23.65,-24.93,0,*7C
1498280563.23,61438,17.44,73990.8,8.33,-24.47,-25.61,0,*78
1498280564.45,61439,17.38,73984.3,8.29,-24.93,-26.23,0,*7E
1498280565.7,61440,17.44,73988.8,8.27,-24.83,-25.97,0,*73
1498280566.93,61441,17.44,73990.5,8.25,-24.05,-25.35,0,*76
1498280568.15,61442,17.44,73996.5,8.23,-23.29,-24.47,0,*7E
1498280569.37,61443,17.44,73992.5,8.23,-23.59,-24.71,0,*7D
1498280570.59,61444,17.44,74002.5,8.23,-23.29,-24.57,0,*79
1498280571.82,61445,17.44,74000.5,8.21,-23.89,-25.09,0,*7A
1498280573.07,61446,17.44,74002.5,8.21,-24.11,-25.39,0,*7C
1498280574.31,61447,17.44,74002.5,8.17,-24.31,-25.61,0,*77
1498280575.58,61448,17.38,73996.8,8.17,-24.11,-25.45,0,*7C
1498280576.84,61449,17.44,74000.8,8.17,-23.99,-25.13,0,*79
1498280578.09,61450,17.44,73992.3,8.17,-23.85,-24.97,0,*71
1498280579.31,61451,17.44,73990.0,8.17,-23.79,-24.93,0,*77
1498280580.53,61452,17.44,73990.5,8.15,-23.23,-24.35,0,*75
1498280581.79,61453,17.44,73996.8,8.11,-24.71,-25.91,0,*7F
1498280583.03,61454,17.44,74000.5,8.11,-24.93,-26.33,0,*7F
1498280584.25,61455,17.44,74002.5,8.09,-25.87,-27.19,0,*7A
1498280585.52,61456,17.44,73986.5,8.07,-24.25,-25.49,0,*79
1498280586.74,61457,17.44,73994.8,8.05,-23.89,-25.03,0,*75
1498280587.96,61458,17.44,73982.5,8.05,-23.33,-24.57,0,*7B
1498280589.23,61459,17.44,73972.5,8.07,-23.03,-23.99,0,*7E
1498280590.47,61460,17.44,73968.5,8.09,-22.47,-23.65,0,*78
1498280591.7,61461,17.44,73974.8,8.09,-22.47,-23.59,0,*76
1498280592.93,61462,17.38,73984.8,8.09,-21.73,-22.77,0,*7C
1498280594.15,61463,17.44,73990.3,8.11,-21.73,-22.83,0,*7F
1498280595.4,61464,17.44,73978.3,8.15,-21.97,-23.03,0,*7F
1498280596.6,61465,17.44,73962.0,8.15,-22.57,-23.59,0,*7E
1498280597.82,61466,17.44,73976.0,8.15,-22.31,-23.43,0,*76
1498280599.08,61467,17.44,73966.8,8.19,-22.21,-23.19,0,*75
1498280600.28,61468,17.44,73972.0,8.19,-21.77,-22.67,0,*72
1498280601.47,61469,17.44,73974.0,8.19,-22.07,-23.13,0,*75
1498280602.72,61470,17.44,73970.5,8.21,-22.93,-24.15,0,*7A
1498280603.94,61471,17.44,73966.8,8.21,-23.13,-24.31,0,*74
1498280605.18,61472,17.44,73964.5,8.21,-22.93,-23.95,0,*77
1498280606.43,61473,17.44,73958.3,8.21,-23.79,-24.87,0,*77
1498280607.66,61474,17.44,73964.5,8.19,-23.19,-24.31,0,*70
1498280608.89,61475,17.44,73956.3,8.19,-24.11,-25.09,0,*74
1498280610.12,61476,17.44,73962.0,8.19,-23.95,-24.93,0,*7E
1498280611.37,61477,17.44,73958.3,8.17,-23.49,-24.51,0,*7E
1498280612.62,61478,17.44,73954.8,8.17,-23.53,-24.61,0,*79
1498280613.88,61479,17.44,73954.3,8.17,-23.95,-24.97,0,*7B
1498280615.1,61480,17.44,73954.0,8.15,-24.21,-25.35,0,*7E
1498280616.36,61481,17.44,73950.5,8.11,-24.87,-26.03,0,*71
1498280617.56,61482,17.44,73952.8,8.09,-24.57,-25.61,0,*71
1498280618.81,61483,17.44,73960.0,8.11,-23.49,-24.47,0,*74
1498280620.06,61484,17.44,73952.0,8.07,-23.79,-24.83,0,*7F
1498280621.32,61485,17.44,73952.5,8.09,-24.25,-25.45,0,*75
1498280622.6,61486,17.44,73952.0,8.07,-24.25,-25.29,0,*72
1498280623.82,61487,17.44,73946.8,8.07,-23.43,-24.61,0,*79
1498280625.06,61488,17.44,73950.0,8.07,-23.13,-24.11,0,*74
1498280626.28,61489,17.44,73944.3,8.09,-22.97,-23.95,0,*7D
1498280627.51,61490,17.44,73946.5,8.05,-23.33,-24.47,0,*7E
1498280628.72,61491,17.44,73950.0,8.05,-23.33,-24.35,0,*7A
1498280629.95,61492,17.44,73952.3,8.05,-23.09,-23.99,0,*71
1498280631.21,61493,17.44,73958.5,8.07,-23.03,-23.99,0,*78
1498280632.44,61494,17.44,73950.8,8.09,-22.31,-23.43,0,*76
1498280633.68,61495,17.44,73954.5,8.07,-22.07,-23.03,0,*78
1498280634.88,61496,17.44,73962.5,8.09,-22.67,-23.79,0,*7E
1498280636.08,61497,17.44,73964.0,8.09,-22.93,-23.89,0,*7B
1498280637.31,61498,17.44,73978.3,8.09,-22.77,-23.79,0,*71
1498280638.51,61499,17.44,73946.3,8.09,-24.05,-25.23,0,*7A
1498280639.75,61500,17.44,73942.0,8.09,-24.47,-25.55,0,*7C
1498280641.02,61501,17.44,73950.8,8.07,-23.29,-24.41,0,*78
1498280642.29,61502,17.44,73952.0,8.07,-23.99,-24.87,0,*7A
1498280643.56,61503,17.44,73970.3,8.07,-23.03,-23.99,0,*70
1498280644.81,61504,17.44,73968.8,8.07,-23.13,-24.25,0,*76
1498280646.02,61505,17.44,73950.8,8.09,-23.39,-24.41,0,*73
1498280647.23,61506,17.44,73950.0,8.09,-22.93,-24.05,0,*71
1498280648.5,61507,17.44,73968.3,8.07,-24.11,-25.29,0,*7D
1498280649.74,61508,17.44,73958.5,8.07,-24.31,-25.49,0,*76
1498280650.98,61509,17.44,73944.0,8.07,-24.93,-25.97,0,*7C
1498280652.22,61510,17.44,73948.3,8.07,-24.83,-25.91,0,*73
1498280653.45,61511,17.44,73950.3,8.05,-23.75,-25.03,0,*75
1498280654.68,61512,17.44,73962.5,8.03,-24.51,-25.87,0,*7D
1498280655.94,61513,17.44,73958.0,8.03,-24.21,-25.23,0,*75
1498280657.15,61514,17.44,73948.8,8.01,-23.43,-24.61,0,*74
1498280658.35,61515,17.44,73950.8,8.01,-23.89,-24.93,0,*7E
1498280659.55,61516,17.44,73948.8,8.01,-22.97,-24.05,0,*7C
1498280660.76,61517,17.44,73946.5,8.01,-23.43,-24.61,0,*77
1498280662.01,61518,17.44,73952.8,8.01,-23.65,-24.87,0,*74
1498280663.24,61519,17.44,73954.8,8.01,-24.35,-25.55,0,*79
1498280664.45,61520,17.44,73952.5,8.01,-23.79,-25.09,0,*75
1498280665.71,61521,17.44,73950.3,7.99,-23.85,-25.09,0,*79
1498280666.93,61522,17.44,73946.3,7.99,-23.79,-24.97,0,*7F
1498280668.2,61523,17.44,73946.0,7.99,-23.69,-24.83,0,*7A
1498280669.44,61524,17.44,73946.3,7.99,-23.85,-24.93,0,*7E
1498280670.68,61525,17.44,73940.3,8.01,-23.43,-24.71,0,*77
1498280671.93,61526,17.44,73944.8,7.99,-24.11,-25.23,0,*7C
1498280673.15,61527,17.44,73942.3,8.01,-24.15,-25.35,0,*70
1498280674.41,61528,17.44,73932.5,7.99,-24.11,-25.13,0,*71
1498280675.66,61529,17.44,73930.0,7.99,-24.15,-25.09,0,*7F
1498280676.91,61530,17.44,73938.8,7.99,-23.99,-25.23,0,*7C
1498280678.14,61531,17.44,73934.0,7.99,-23.43,-24.47,0,*79
1498280679.37,61532,17.44,73940.8,7.97,-23.49,-24.61,0,*7A
1498280680.59,61533,17.44,73942.8,7.97,-23.69,-24.77,0,*7E
1498280681.87,61534,17.44,73942.5,7.99,-24.25,-25.45,0,*78
1498280683.12,61535,17.44,73942.0,7.99,-24.15,-25.13,0,*79
1498280684.33,61536,17.44,73950.0,7.97,-23.79,-24.77,0,*7A
1498280685.61,61537,17.44,73950.3,7.95,-23.65,-24.71,0,*72
1498280686.83,61538,17.44,73956.8,7.97,-23.33,-24.31,0,*78
1498280688.05,61539,17.44,73960.0,7.95,-23.39,-24.51,0,*77
1498280689.32,61540,17.44,73952.3,7.97,-24.25,-25.29,0,*7F
1498280690.57,61541,17.44,73962.8,7.95,-23.65,-24.61,0,*72
1498280691.85,61542,17.44,73962.3,7.95,-23.03,-23.85,0,*7C
1498280693.1,61543,17.44,73970.0,7.97,-23.03,-23.99,0,*72
1498280694.31,61544,17.44,73972.0,8.01,-22.37,-23.43,0,*74
1498280695.55,61545,17.44,73956.8,7.99,-23.13,-23.99,0,*7B
1498280696.77,61546,17.44,73958.8,8.01,-23.13,-24.11,0,*71
1498280698.03,61547,17.44,73964.3,8.01,-23.33,-24.25,0,*75
1498280699.25,61548,17.44,73972.8,8.01,-23.09,-23.95,0,*7F
1498280700.49,61549,17.44,73974.0,8.01,-23.23,-24.11,0,*7D
1498280701.71,61550,17.44,73968.0,8.01,-23.13,-24.11,0,*76
1498280702.91,61551,17.44,73974.3,8.01,-22.93,-23.89,0,*78
1498280704.2,61552,17.44,73968.8,8.03,-21.67,-22.47,0,*72
1498280705.45,61553,17.44,73962.0,8.03,-22.11,-23.19,0,*7B
1498280706.7,61554,17.44,73964.3,8.05,-23.85,-24.71,0,*7F
1498280707.92,61555,17.44,73960.8,8.05,-23.59,-24.67,0,*78
1498280709.15,61556,17.44,73972.3,8.05,-23.09,-23.99,0,*78
1498280710.36,61557,17.44,73962.8,8.05,-22.73,-23.59,0,*79
1498280711.55,61558,17.44,73962.0,8.05,-22.87,-23.89,0,*70
1498280712.8,61559,17.44,73966.5,8.05,-23.85,-24.71,0,*72
1498280714.03,61560,17.44,73958.5,8.05,-23.75,-24.71,0,*77
1498280715.28,61561,17.44,73956.5,8.05,-22.77,-23.69,0,*7B
1498280716.51,61562,17.44,73956.3,8.05,-21.53,-22.37,0,*77
1498280717.72,61563,17.44,73962.0,8.07,-22.03,-22.83,0,*7D
1498280718.92,61564,17.44,73968.8,8.09,-22.11,-23.13,0,*7F
1498280720.15,61565,17.44,73972.0,8.09,-21.97,-22.83,0,*7B
1498280721.37,61566,17.44,73966.5,8.11,-22.03,-22.93,0,*7E
1498280722.59,61567,17.44,73986.3,8.11,-22.11,-22.97,0,*78
1498280723.83,61568,17.44,73972.3,8.15,-22.73,-23.53,0,*7E
1498280725.06,61569,17.44,73976.5,8.15,-22.77,-23.59,0,*71
1498280726.28,61570,17.44,73964.5,8.15,-22.77,-23.89,0,*74
1498280727.5,61571,17.44,73954.3,8.15,-22.27,-23.03,0,*72
1498280728.72,61572,17.44,73966.3,8.15,-21.33,-22.11,0,*75
1498280729.92,61573,17.44,73964.5,8.19,-22.83,-23.79,0,*7F
1498280731.15,61574,17.44,73958.8,8.19,-22.97,-23.85,0,*7E
1498280732.37,61575,17.44,73960.5,8.19,-22.41,-23.29,0,*72
1498280733.62,61576,17.44,73962.8,8.19,-21.87,-22.73,0,*76
1498280734.87,61577,17.44,73966.5,8.21,-21.67,-22.53,0,*70
1498280736.13,61578,17.44,73966.5,8.21,-22.17,-23.13,0,*7E
1498280737.37,61579,17.44,73964.5,8.21,-21.83,-22.63,0,*77
1498280738.6,61580,17.44,73970.5,8.23,-21.97,-22.93,0,*79
1498280739.82,61581,17.44,73978.5,8.25,-21.77,-22.57,0,*78
1498280741.09,61582,17.44,73978.8,8.25,-21.83,-22.73,0,*76
1498280742.28,61583,17.44,73970.8,8.27,-22.83,-23.79,0,*7D
1498280743.51,61584,17.44,73968.0,8.25,-23.59,-24.57,0,*75
1498280744.75,61585,17.44,73960.8,8.25,-23.03,-24.05,0,*7C
1498280746.0,61586,17.44,73966.3,8.25,-24.15,-25.23,0,*7A
1498280747.23,61587,17.44,73954.0,8.23,-24.21,-25.19,0,*73
1498280748.47,61588,17.44,73942.5,8.21,-24.57,-25.45,0,*76
1498280749.74,61589,17.44,73940.0,8.21,-23.33,-24.25,0,*75
1498280750.99,61590,17.44,73942.0,8.21,-21.83,-22.67,0,*74
1498280752.21,61591,17.44,73940.8,8.23,-21.09,-21.83,0,*7C
1498280753.45,61592,17.44,73956.0,8.25,-21.17,-21.97,0,*73
1498280754.68,61593,17.44,73952.8,8.27,-21.13,-21.87,0,*75
1498280755.87,61594,17.44,73986.3,8.27,-21.47,-22.37,0,*7B
1498280757.09,61595,17.44,73944.8,8.27,-22.07,-23.19,0,*70
1498280758.28,61596,17.44,73910.0,8.27,-22.07,-22.97,0,*74
1498280759.53,61597,17.44,73914.3,8.29,-21.57,-22.53,0,*75
1498280760.77,61598,17.44,73946.3,8.31,-22.31,-23.29,0,*7C
1498280762.03,61599,17.44,73964.3,8.31,-21.53,-22.47,0,*73
1498280763.31,61600,17.44,73970.8,8.33,-21.53,-22.17,0,*77
1498280764.54,61601,17.44,73970.8,8.35,-20.99,-21.77,0,*72
1498280765.74,61602,17.44,73978.8,8.35,-20.89,-21.63,0,*75
1498280766.99,61603,17.44,73972.5,8.41,-20.63,-21.33,0,*76
1498280768.23,61604,17.44,73976.0,8.41,-20.35,-21.13,0,*70
1498280769.46,61605,17.44,73976.3,8.47,-20.39,-21.17,0,*7F
1498280770.71,61606,17.44,73982.3,8.47,-20.73,-21.67,0,*75
1498280771.96,61607,17.44,73978.5,8.51,-20.49,-21.39,0,*71
1498280773.22,61608,17.44,73982.5,8.53,-20.49,-21.27,0,*73
1498280774.44,61609,17.44,73982.5,8.55,-20.29,-21.13,0,*75
1498280775.66,61610,17.44,73980.8,8.55,-20.25,-20.93,0,*78
1498280776.89,61611,17.44,73980.5,8.59,-20.63,-21.43,0,*7B
1498280778.11,61612,17.44,73980.5,8.57,-20.35,-21.17,0,*74
1498280779.33,61613,17.44,73978.3,8.63,-20.05,-20.93,0,*7C
1498280780.58,61614,17.44,73984.5,8.63,-20.05,-20.83,0,*7A
1498280781.81,61615,17.44,73986.3,8.65,-20.83,-21.63,0,*7C
1498280783.03,61616,17.44,73986.8,8.65,-20.49,-21.39,0,*76
1498280784.24,61617,17.44,73986.8,8.69,-21.17,-22.11,0,*78
1498280785.49,61618,17.44,73990.3,8.69,-20.79,-21.87,0,*72
1498280786.72,61619,17.44,73986.0,8.69,-21.57,-22.57,0,*70
1498280787.92,61620,17.44,73988.0,8.69,-21.47,-22.41,0,*7C
1498280789.17,61621,17.44,73984.3,8.67,-21.53,-22.41,0,*76
1498280790.4,61622,17.44,73986.5,8.69,-21.97,-22.93,0,*7C
1498280791.66,61623,17.44,73988.5,8.69,-21.57,-22.17,0,*7D
1498280792.89,61624,17.44,73990.3,8.69,-21.33,-22.27,0,*7B
1498280794.12,61625,17.44,73988.5,8.69,-20.89,-21.83,0,*77
1498280795.37,61626,17.44,73992.3,8.71,-21.33,-22.37,0,*71
1498280796.57,61627,17.44,73992.0,8.73,-21.47,-22.53,0,*73
1498280797.79,61628,17.44,73990.8,8.73,-21.27,-22.07,0,*7B
1498280799.02,61629,17.44,73996.8,8.73,-21.87,-22.83,0,*7C
1498280800.29,61630,17.44,73998.8,8.71,-21.97,-23.03,0,*7E
1498280801.51,61631,17.44,74000.3,8.75,-21.17,-22.11,0,*71
1498280802.76,61632,17.44,74000.8,8.75,-21.33,-22.27,0,*71
1498280804.04,61633,17.44,73996.0,8.77,-22.31,-23.29,0,*7C
1498280805.28,61634,17.44,73996.8,8.75,-22.93,-23.95,0,*76
1498280806.5,61635,17.44,73998.0,8.73,-23.69,-24.61,0,*79
1498280807.71,61636,17.44,73988.8,8.73,-22.53,-23.43,0,*75
1498280808.96,61637,17.44,73992.3,8.71,-22.27,-23.23,0,*73
1498280810.16,61638,17.44,73994.8,8.73,-21.73,-22.53,0,*7A
1498280811.39,61639,17.44,73992.8,8.73,-22.31,-23.43,0,*7E
1498280812.66,61640,17.44,73996.0,8.71,-23.03,-24.15,0,*76
1498280813.88,61641,17.44,73998.8,8.71,-24.05,-24.97,0,*7C
1498280815.12,61642,17.44,73990.5,8.69,-24.57,-25.71,0,*78
1498280816.38,61643,17.44,73976.0,8.67,-24.71,-25.87,0,*7A
1498280817.66,61644,17.44,73976.8,8.63,-25.55,-26.77,0,*72
1498280818.92,61645,17.44,73972.8,8.63,-24.57,-25.45,0,*72
1498280820.12,61646,17.44,73976.3,8.57,-24.05,-24.93,0,*7B
1498280821.37,61647,17.44,73974.3,8.57,-23.69,-24.71,0,*7B
1498280822.59,61648,17.44,73972.3,8.55,-23.43,-24.57,0,*7A
1498280823.87,61649,17.44,73964.0,8.55,-23.29,-24.21,0,*76
1498280825.1,61650,17.44,73978.5,8.55,-21.73,-22.63,0,*73
1498280826.33,61651,17.44,73976.5,8.55,-21.17,-22.03,0,*76
1498280827.6,61652,17.44,73984.8,8.59,-20.83,-21.57,0,*77
1498280828.88,61653,17.44,73986.8,8.59,-20.83,-21.67,0,*75
1498280830.11,61654,17.44,73986.3,8.65,-21.23,-22.07,0,*73
1498280831.31,61655,17.44,73986.5,8.65,-21.09,-21.77,0,*7E
1498280832.51,61656,17.44,73986.8,8.69,-20.63,-21.47,0,*7F
1498280833.78,61657,17.44,73988.0,8.69,-20.53,-21.23,0,*7F
1498280835.02,61658,17.44,73990.3,8.71,-20.25,-21.03,0,*7A
1498280836.28,61659,17.44,73986.0,8.73,-21.27,-22.17,0,*7C
1498280837.5,61660,17.44,73986.0,8.75,-20.89,-21.73,0,*74
1498280838.75,61661,17.44,73988.8,8.75,-22.17,-23.13,0,*74
1498280839.98,61662,17.44,73982.5,8.75,-22.93,-23.89,0,*78
1498280841.2,61663,17.44,73982.8,8.75,-22.93,-23.89,0,*79
1498280842.45,61664,17.44,73982.5,8.75,-22.53,-23.49,0,*7E
1498280843.7,61665,17.44,73986.8,8.75,-21.87,-22.67,0,*78
1498280844.92,61666,17.44,73978.3,8.75,-22.11,-22.83,0,*7D
1498280846.17,61667,17.44,73982.8,8.75,-21.43,-22.31,0,*71
1498280847.43,61668,17.44,73988.8,8.77,-21.17,-21.97,0,*72
1498280848.65,61669,17.44,73992.5,8.77,-20.93,-21.73,0,*74
1498280849.85,61670,17.44,73984.5,8.79,-20.89,-21.77,0,*7D
1498280851.1,61671,17.44,73990.0,8.79,-21.83,-22.73,0,*70
1498280852.36,61672,17.44,73986.0,8.79,-22.21,-23.19,0,*75
1498280853.59,61673,17.44,73984.8,8.79,-21.63,-22.47,0,*7B
1498280854.82,61674,17.44,73984.8,8.81,-21.47,-22.27,0,*7B
1498280856.04,61675,17.44,73984.5,8.81,-21.13,-22.07,0,*79
1498280857.27,61676,17.44,73990.5,8.81,-21.47,-22.37,0,*78
1498280858.52,61677,17.44,73986.8,8.85,-20.39,-21.23,0,*73
1498280859.72,61678,17.44,73978.5,8.87,-21.09,-22.03,0,*7D
1498280860.91,61679,17.44,73980.5,8.87,-20.73,-21.73,0,*74
1498280862.15,61680,17.44,73984.0,8.89,-21.23,-22.11,0,*7F
1498280863.35,61681,17.44,73982.0,8.91,-20.69,-21.47,0,*78
1498280864.62,61682,17.44,73984.8,8.89,-21.03,-21.83,0,*77
1498280865.84,61683,17.44,73986.3,8.93,-20.25,-21.13,0,*71
1498280867.04,61684,17.44,73990.5,8.95,-20.69,-21.47,0,*79
1498280868.26,61685,17.44,73988.3,8.95,-20.83,-21.77,0,*7F
1498280869.46,61686,17.44,73994.8,8.95,-20.63,-21.47,0,*71
1498280870.68,61687,17.44,73998.3,8.95,-20.93,-21.87,0,*73
1498280871.88,61688,17.44,73996.5,8.99,-20.43,-21.39,0,*78
1498280873.16,61689,17.44,73996.0,8.97,-21.03,-21.83,0,*73
1498280874.38,61690,17.44,74000.5,8.99,-20.63,-21.53,0,*7F
1498280875.6,61691,17.44,73998.0,9.03,-20.89,-21.67,0,*7F
1498280876.82,61692,17.44,73994.0,9.01,-21.09,-22.07,0,*72
1498280878.1,61693,17.44,73994.5,9.01,-20.99,-21.83,0,*74
1498280879.3,61694,17.44,73996.5,9.03,-20.59,-21.47,0,*75
1498280880.54,61695,17.44,73994.0,9.05,-20.79,-21.73,0,*77
1498280881.78,61696,17.44,73994.3,9.05,-20.79,-21.63,0,*75
1498280882.98,61697,17.44,73990.0,9.09,-20.43,-21.39,0,*7E
1498280884.22,61698,17.44,73996.5,9.11,-19.99,-20.93,0,*74
1498280885.48,61699,17.44,73994.0,9.11,-20.59,-21.53,0,*7E
1498280886.69,61700,17.44,73994.0,9.13,-20.29,-21.33,0,*7C
1498280887.94,61701,17.44,73996.0,9.15,-20.83,-21.77,0,*7B
1498280889.17,61702,17.44,73988.8,9.17,-20.63,-21.57,0,*76
1498280890.41,61703,17.44,73988.5,9.15,-20.49,-21.43,0,*78
1498280891.64,61704,17.44,73994.0,9.17,-20.99,-22.07,0,*73
1498280892.84,61705,17.44,73988.0,9.17,-21.43,-22.37,0,*77
1498280894.06,61706,17.44,73984.5,9.15,-20.69,-21.77,0,*78
1498280895.31,61707,17.44,73992.8,9.19,-20.59,-21.53,0,*70
1498280896.59,61708,17.44,73990.3,9.19,-20.83,-21.87,0,*71
1498280897.87,61709,17.44,73986.3,9.19,-22.47,-23.65,0,*74
1498280899.12,61710,17.44,73988.0,9.19,-21.43,-22.47,0,*7A
1498280900.35,61711,17.44,73988.0,9.19,-21.93,-23.13,0,*76
1498280901.63,61712,17.44,73988.0,9.19,-22.17,-23.19,0,*70